| time (UTC) | temp F | wind direction | speed MPH | gust MPH | rain 1hr in | rain 24hr in | rain mn in | humidity % | barometer mb |
| 20260831214204 | 79 | 321 | 0.0 | 1.0 | 0.00 | 0.00 | 0.00 | 52 | 1015.6 |
| 20260831214048 | 80 | 231 | 0.0 | 3.0 | 0.00 | 0.00 | 0.00 | 46 | 1016.3 |
| 20260831213703 | 79 | 298 | 0.0 | 0.0 | 0.00 | 0.00 | 0.00 | 51 | 1015.6 |
| 20260831213545 | 80 | 285 | 1.0 | 2.0 | 0.00 | 0.00 | 0.00 | 46 | 1016.5 |
| 20260831213203 | 80 | 219 | 0.0 | 0.0 | 0.00 | 0.00 | 0.00 | 49 | 1015.7 |
| 20260831213040 | 80 | 176 | 1.0 | 3.0 | 0.00 | 0.00 | 0.00 | 45 | 1016.3 |
| 20260831212703 | 80 | 321 | 0.0 | 0.0 | 0.00 | 0.00 | 0.00 | 46 | 1015.6 |
| 20260831212536 | 80 | 152 | 0.0 | 1.0 | 0.00 | 0.00 | 0.00 | 42 | 1016.5 |
| 20260831212204 | 80 | 202 | 0.0 | 0.0 | 0.00 | 0.00 | 0.00 | 45 | 1015.6 |
| 20260831212031 | 80 | 150 | 0.0 | 2.0 | 0.00 | 0.00 | 0.00 | 41 | 1016.3 |
| 20260831211704 | 80 | 191 | 0.0 | 1.0 | 0.00 | 0.00 | 0.00 | 45 | 1015.6 |
| 20260831211525 | 81 | 153 | 1.0 | 2.0 | 0.00 | 0.00 | 0.00 | 40 | 1016.4 |
| 20260831211203 | 81 | 213 | 0.0 | 0.0 | 0.00 | 0.00 | 0.00 | 47 | 1015.7 |
| 20260831211024 | 81 | 176 | 1.0 | 1.0 | 0.00 | 0.00 | 0.00 | 42 | 1016.6 |
| 20260831210703 | 80 | 285 | 0.0 | 0.0 | 0.00 | 0.00 | 0.00 | 45 | 1015.8 |
| 20260831210520 | 81 | 235 | 3.0 | 4.0 | 0.00 | 0.00 | 0.00 | 41 | 1016.7 |
| 20260831210204 | 80 | 313 | 0.0 | 0.0 | 0.00 | 0.00 | 0.00 | 47 | 1015.8 |
| 20260831210016 | 81 | 286 | 4.0 | 4.0 | 0.00 | 0.00 | 0.00 | 43 | 1016.7 |
| 20260831205704 | 80 | 208 | 1.0 | 6.0 | 0.00 | 0.00 | 0.00 | 48 | 1015.9 |
| 20260831205516 | 80 | 226 | 1.0 | 3.0 | 0.00 | 0.00 | 0.00 | 46 | 1016.7 |
| 20260831205203 | 80 | 202 | 0.0 | 1.0 | 0.00 | 0.00 | 0.00 | 50 | 1015.9 |
| 20260831205013 | 80 | 174 | 1.0 | 4.0 | 0.00 | 0.00 | 0.00 | 46 | 1016.9 |
| 20260831204703 | 81 | 294 | 1.0 | 3.0 | 0.00 | 0.00 | 0.00 | 49 | 1015.9 |
| 20260831204513 | 80 | 217 | 1.0 | 4.0 | 0.00 | 0.00 | 0.00 | 48 | 1016.7 |
| 20260831204011 | 81 | 153 | 4.0 | 6.0 | 0.00 | 0.00 | 0.00 | 45 | 1016.9 |
| 20260831203703 | 81 | 322 | 0.0 | 0.0 | 0.00 | 0.00 | 0.00 | 51 | 1016.0 |
| 20260831203510 | 80 | 232 | 1.0 | 2.0 | 0.00 | 0.00 | 0.00 | 47 | 1016.9 |
| 20260831203009 | 79 | 238 | 1.0 | 2.0 | 0.00 | 0.00 | 0.00 | 48 | 1016.9 |
| 20260831202703 | 81 | 284 | 0.0 | 0.0 | 0.00 | 0.00 | 0.00 | 50 | 1016.0 |
| 20260831202504 | 81 | 164 | 1.0 | 3.0 | 0.00 | 0.00 | 0.00 | 46 | 1016.7 |
| 20260831202204 | 81 | 204 | 0.0 | 0.0 | 0.00 | 0.00 | 0.00 | 50 | 1016.0 |
| 20260831202003 | 82 | 147 | 1.0 | 6.0 | 0.00 | 0.00 | 0.00 | 44 | 1016.7 |
| 20260831201704 | 81 | 188 | 0.0 | 0.0 | 0.00 | 0.00 | 0.00 | 48 | 1016.0 |
| 20260831201502 | 82 | 153 | 0.0 | 2.0 | 0.00 | 0.00 | 0.00 | 43 | 1016.7 |
| 20260831201203 | 81 | 333 | 0.0 | 0.0 | 0.00 | 0.00 | 0.00 | 49 | 1016.0 |
| 20260831200958 | 82 | 149 | 0.0 | 2.0 | 0.00 | 0.00 | 0.00 | 43 | 1016.9 |
| 20260831200703 | 80 | 295 | 0.0 | 0.0 | 0.00 | 0.00 | 0.00 | 49 | 1016.1 |
| 20260831200454 | 80 | 231 | 2.0 | 2.0 | 0.00 | 0.00 | 0.00 | 44 | 1017.1 |
| 20260831200203 | 80 | 323 | 0.0 | 0.0 | 0.00 | 0.00 | 0.00 | 50 | 1016.1 |
| 20260831195953 | 78 | 142 | 0.0 | 2.0 | 0.00 | 0.00 | 0.00 | 46 | 1016.8 |
| 20260831195703 | 80 | 225 | 0.0 | 0.0 | 0.00 | 0.00 | 0.00 | 49 | 1016.1 |
| 20260831195449 | 80 | 171 | 2.0 | 3.0 | 0.00 | 0.00 | 0.00 | 47 | 1016.9 |
| 20260831195203 | 81 | 231 | 0.0 | 0.0 | 0.00 | 0.00 | 0.00 | 48 | 1016.1 |
| 20260831194944 | 80 | 319 | 3.0 | 3.0 | 0.00 | 0.00 | 0.00 | 44 | 1016.9 |
| 20260831194703 | 81 | 242 | 0.0 | 1.0 | 0.00 | 0.00 | 0.00 | 47 | 1016.1 |
| 20260831194440 | 80 | 136 | 0.0 | 3.0 | 0.00 | 0.00 | 0.00 | 42 | 1017.1 |
| 20260831194203 | 81 | 294 | 1.0 | 7.0 | 0.00 | 0.00 | 0.00 | 48 | 1016.2 |
| 20260831193939 | 80 | 314 | 3.0 | 4.0 | 0.00 | 0.00 | 0.00 | 44 | 1017.2 |
| 20260831193703 | 82 | 302 | 0.0 | 3.0 | 0.00 | 0.00 | 0.00 | 46 | 1016.2 |
| 20260831193434 | 81 | 210 | 1.0 | 9.0 | 0.00 | 0.00 | 0.00 | 44 | 1017.3 |
| 20260831193203 | 82 | 292 | 0.0 | 3.0 | 0.00 | 0.00 | 0.00 | 46 | 1016.2 |
| 20260831192929 | 81 | 90 | 2.0 | 4.0 | 0.00 | 0.00 | 0.00 | 42 | 1017.2 |
| 20260831192424 | 82 | 95 | 2.0 | 4.0 | 0.00 | 0.00 | 0.00 | 40 | 1017.2 |
| 20260831192204 | 83 | 192 | 0.0 | 0.0 | 0.00 | 0.00 | 0.00 | 46 | 1016.2 |
| 20260831191919 | 83 | 99 | 0.0 | 2.0 | 0.00 | 0.00 | 0.00 | 40 | 1017.1 |
| 20260831191703 | 83 | 333 | 0.0 | 0.0 | 0.00 | 0.00 | 0.00 | 44 | 1016.2 |
| 20260831191415 | 82 | 145 | 1.0 | 3.0 | 0.00 | 0.00 | 0.00 | 40 | 1017.3 |
| 20260831191203 | 82 | 298 | 0.0 | 0.0 | 0.00 | 0.00 | 0.00 | 45 | 1016.3 |
| 20260831190912 | 83 | 182 | 3.0 | 6.0 | 0.00 | 0.00 | 0.00 | 39 | 1017.2 |
| 20260831190703 | 82 | 200 | 1.0 | 7.0 | 0.00 | 0.00 | 0.00 | 47 | 1016.3 |
| 20260831190411 | 82 | 227 | 0.0 | 1.0 | 0.00 | 0.00 | 0.00 | 43 | 1017.2 |
| 20260831190204 | 82 | 315 | 0.0 | 1.0 | 0.00 | 0.00 | 0.00 | 46 | 1016.5 |
| 20260831185911 | 81 | 226 | 1.0 | 2.0 | 0.00 | 0.00 | 0.00 | 41 | 1017.5 |
| 20260831185703 | 82 | 223 | 0.0 | 1.0 | 0.00 | 0.00 | 0.00 | 45 | 1016.5 |
| 20260831185407 | 82 | 131 | 2.0 | 3.0 | 0.00 | 0.00 | 0.00 | 39 | 1017.5 |
| 20260831185204 | 82 | 289 | 0.0 | 2.0 | 0.00 | 0.00 | 0.00 | 45 | 1016.6 |
| 20260831184906 | 82 | 141 | 2.0 | 3.0 | 0.00 | 0.00 | 0.00 | 39 | 1017.5 |
| 20260831184704 | 82 | 186 | 0.0 | 1.0 | 0.00 | 0.00 | 0.00 | 45 | 1016.6 |
| 20260831184401 | 81 | 176 | 1.0 | 2.0 | 0.00 | 0.00 | 0.00 | 41 | 1017.7 |
| 20260831184203 | 81 | 197 | 0.0 | 0.0 | 0.00 | 0.00 | 0.00 | 46 | 1016.7 |
| 20260831183856 | 81 | 134 | 1.0 | 3.0 | 0.00 | 0.00 | 0.00 | 41 | 1017.7 |
| 20260831183703 | 81 | 217 | 0.0 | 0.0 | 0.00 | 0.00 | 0.00 | 46 | 1016.7 |
| 20260831183356 | 81 | 183 | 2.0 | 2.0 | 0.00 | 0.00 | 0.00 | 42 | 1017.7 |
| 20260831183203 | 80 | 300 | 0.0 | 0.0 | 0.00 | 0.00 | 0.00 | 46 | 1016.8 |
| 20260831182855 | 81 | 129 | 3.0 | 6.0 | 0.00 | 0.00 | 0.00 | 42 | 1017.7 |
| 20260831182704 | 80 | 293 | 0.0 | 3.0 | 0.00 | 0.00 | 0.00 | 46 | 1016.9 |
| 20260831182350 | 81 | 282 | 3.0 | 6.0 | 0.00 | 0.00 | 0.00 | 41 | 1018.1 |
| 20260831182204 | 80 | 301 | 0.0 | 3.0 | 0.00 | 0.00 | 0.00 | 48 | 1016.9 |
| 20260831181846 | 79 | 222 | 2.0 | 2.0 | 0.00 | 0.00 | 0.00 | 43 | 1017.8 |
| 20260831181704 | 79 | 256 | 0.0 | 1.0 | 0.00 | 0.00 | 0.00 | 46 | 1016.9 |
| 20260831181341 | 79 | 326 | 3.0 | 4.0 | 0.00 | 0.00 | 0.00 | 42 | 1018.2 |
| 20260831181203 | 79 | 202 | 0.0 | 1.0 | 0.00 | 0.00 | 0.00 | 48 | 1017.0 |
| 20260831180835 | 78 | 197 | 1.0 | 2.0 | 0.00 | 0.00 | 0.00 | 45 | 1018.0 |
| 20260831180330 | 78 | 253 | 2.0 | 3.0 | 0.00 | 0.00 | 0.00 | 44 | 1017.9 |
| 20260831180204 | 79 | 274 | 0.0 | 0.0 | 0.00 | 0.00 | 0.00 | 48 | 1017.0 |
| 20260831175829 | 78 | 17 | 3.0 | 3.0 | 0.00 | 0.00 | 0.00 | 41 | 1018.2 |
| 20260831175326 | 78 | 34 | 2.0 | 2.0 | 0.00 | 0.00 | 0.00 | 42 | 1018.2 |
| 20260831175203 | 79 | 355 | 0.0 | 9.0 | 0.00 | 0.00 | 0.00 | 45 | 1017.2 |
| 20260831174822 | 80 | 347 | 1.0 | 6.0 | 0.00 | 0.00 | 0.00 | 41 | 1018.3 |
| 20260831174317 | 78 | 277 | 1.0 | 4.0 | 0.00 | 0.00 | 0.00 | 44 | 1018.2 |
| 20260831173816 | 79 | 104 | 1.0 | 4.0 | 0.00 | 0.00 | 0.00 | 41 | 1018.3 |
| 20260831173703 | 79 | 238 | 0.0 | 0.0 | 0.00 | 0.00 | 0.00 | 49 | 1017.4 |
| 20260831173310 | 78 | 151 | 1.0 | 3.0 | 0.00 | 0.00 | 0.00 | 44 | 1018.2 |
| 20260831173204 | 78 | 183 | 0.0 | 0.0 | 0.00 | 0.00 | 0.00 | 48 | 1017.4 |
| 20260831172806 | 77 | 204 | 1.0 | 4.0 | 0.00 | 0.00 | 0.00 | 45 | 1018.2 |
| 20260831172703 | 78 | 210 | 0.0 | 0.0 | 0.00 | 0.00 | 0.00 | 48 | 1017.4 |
| 20260831172305 | 77 | 204 | 1.0 | 2.0 | 0.00 | 0.00 | 0.00 | 43 | 1018.3 |
| 20260831172204 | 78 | 254 | 0.0 | 0.0 | 0.00 | 0.00 | 0.00 | 46 | 1017.5 |
| 20260831171801 | 77 | 145 | 0.0 | 2.0 | 0.00 | 0.00 | 0.00 | 42 | 1018.3 |
| 20260831171703 | 78 | 267 | 0.0 | 0.0 | 0.00 | 0.00 | 0.00 | 45 | 1017.6 |
| 20260831171258 | 78 | 124 | 1.0 | 4.0 | 0.00 | 0.00 | 0.00 | 40 | 1018.5 |
| 20260831171203 | 78 | 230 | 0.0 | 1.0 | 0.00 | 0.00 | 0.00 | 44 | 1017.6 |
| 20260831170755 | 77 | 92 | 1.0 | 3.0 | 0.00 | 0.00 | 0.00 | 40 | 1018.6 |
| 20260831170703 | 78 | 321 | 0.0 | 0.0 | 0.00 | 0.00 | 0.00 | 43 | 1017.6 |
| 20260831170251 | 78 | 313 | 4.0 | 6.0 | 0.00 | 0.00 | 0.00 | 39 | 1018.6 |
| 20260831170204 | 79 | 336 | 0.0 | 2.0 | 0.00 | 0.00 | 0.00 | 43 | 1017.8 |
| 20260831165747 | 78 | 308 | 4.0 | 7.0 | 0.00 | 0.00 | 0.00 | 39 | 1018.7 |
| 20260831165703 | 78 | 2 | 0.0 | 0.0 | 0.00 | 0.00 | 0.00 | 43 | 1017.8 |
| 20260831165243 | 78 | 142 | 3.0 | 4.0 | 0.00 | 0.00 | 0.00 | 41 | 1018.6 |
| 20260831165204 | 78 | 310 | 0.0 | 0.0 | 0.00 | 0.00 | 0.00 | 49 | 1017.8 |
| 20260831164738 | 77 | 202 | 3.0 | 3.0 | 0.00 | 0.00 | 0.00 | 48 | 1018.8 |
| 20260831164704 | 78 | 285 | 0.0 | 0.0 | 0.00 | 0.00 | 0.00 | 50 | 1017.9 |
| 20260831164235 | 77 | 160 | 1.0 | 2.0 | 0.00 | 0.00 | 0.00 | 49 | 1018.9 |
| 20260831163729 | 76 | 163 | 1.0 | 4.0 | 0.00 | 0.00 | 0.00 | 47 | 1018.8 |
| 20260831163225 | 77 | 282 | 3.0 | 4.0 | 0.00 | 0.00 | 0.00 | 46 | 1018.9 |
| 20260831163204 | 77 | 317 | 0.0 | 0.0 | 0.00 | 0.00 | 0.00 | 51 | 1018.0 |
| 20260831162724 | 77 | 141 | 1.0 | 4.0 | 0.00 | 0.00 | 0.00 | 47 | 1018.8 |
| 20260831162703 | 77 | 345 | 0.0 | 0.0 | 0.00 | 0.00 | 0.00 | 52 | 1018.0 |
| 20260831162223 | 77 | 113 | 0.0 | 1.0 | 0.00 | 0.00 | 0.00 | 46 | 1018.8 |
| 20260831162203 | 77 | 12 | 0.0 | 5.0 | 0.00 | 0.00 | 0.00 | 51 | 1018.1 |
| 20260831161718 | 76 | 168 | 1.0 | 3.0 | 0.00 | 0.00 | 0.00 | 48 | 1019.1 |
| 20260831161703 | 77 | 307 | 0.0 | 3.0 | 0.00 | 0.00 | 0.00 | 53 | 1018.1 |
| 20260831161215 | 76 | 288 | 2.0 | 3.0 | 0.00 | 0.00 | 0.00 | 48 | 1019.1 |
| 20260831161203 | 76 | 257 | 0.0 | 8.0 | 0.00 | 0.00 | 0.00 | 54 | 1018.1 |
| 20260831160714 | 75 | 207 | 2.0 | 3.0 | 0.00 | 0.00 | 0.00 | 49 | 1019.1 |
| 20260831160704 | 76 | 194 | 0.0 | 0.0 | 0.00 | 0.00 | 0.00 | 53 | 1018.3 |
| 20260831160209 | 75 | 178 | 3.0 | 6.0 | 0.00 | 0.00 | 0.00 | 50 | 1019.1 |
| 20260831160203 | 76 | 186 | 0.0 | 0.0 | 0.00 | 0.00 | 0.00 | 54 | 1018.3 |
| 20260831155704 | 76 | 153 | 1.0 | 4.0 | 0.00 | 0.00 | 0.00 | 49 | 1019.2 |
| 20260831155203 | 76 | 157 | 1.0 | 6.0 | 0.00 | 0.00 | 0.00 | 54 | 1018.3 |
| 20260831155159 | 76 | 134 | 2.0 | 4.0 | 0.00 | 0.00 | 0.00 | 49 | 1019.2 |
| 20260831154703 | 76 | 100 | 0.0 | 0.0 | 0.00 | 0.00 | 0.00 | 56 | 1018.3 |
| 20260831154654 | 75 | 170 | 1.0 | 1.0 | 0.00 | 0.00 | 0.00 | 51 | 1019.0 |
| 20260831154150 | 75 | 114 | 1.0 | 2.0 | 0.00 | 0.00 | 0.00 | 52 | 1019.1 |
| 20260831153704 | 76 | 163 | 0.0 | 1.0 | 0.00 | 0.00 | 0.00 | 54 | 1018.3 |
| 20260831153649 | 75 | 198 | 1.0 | 2.0 | 0.00 | 0.00 | 0.00 | 49 | 1019.0 |
| 20260831153203 | 75 | 261 | 0.0 | 1.0 | 0.00 | 0.00 | 0.00 | 53 | 1018.4 |
| 20260831153145 | 74 | 101 | 0.0 | 1.0 | 0.00 | 0.00 | 0.00 | 49 | 1019.1 |
| 20260831152703 | 75 | 281 | 0.0 | 1.0 | 0.00 | 0.00 | 0.00 | 55 | 1018.5 |
| 20260831152640 | 75 | 283 | 2.0 | 3.0 | 0.00 | 0.00 | 0.00 | 50 | 1019.3 |
| 20260831152136 | 75 | 145 | 1.0 | 2.0 | 0.00 | 0.00 | 0.00 | 50 | 1019.3 |
| 20260831151703 | 75 | 199 | 0.0 | 0.0 | 0.00 | 0.00 | 0.00 | 55 | 1018.6 |
| 20260831151636 | 76 | 185 | 3.0 | 4.0 | 0.00 | 0.00 | 0.00 | 49 | 1019.3 |
| 20260831151203 | 75 | 186 | 0.0 | 0.0 | 0.00 | 0.00 | 0.00 | 56 | 1018.5 |
| 20260831151130 | 75 | 181 | 1.0 | 2.0 | 0.00 | 0.00 | 0.00 | 51 | 1019.4 |
| 20260831150703 | 74 | 329 | 0.0 | 0.0 | 0.00 | 0.00 | 0.00 | 57 | 1018.6 |
| 20260831150626 | 75 | 168 | 1.0 | 1.0 | 0.00 | 0.00 | 0.00 | 51 | 1019.5 |
| 20260831150204 | 74 | 265 | 1.0 | 6.0 | 0.00 | 0.00 | 0.00 | 57 | 1018.6 |
| 20260831150122 | 74 | 57 | 2.0 | 3.0 | 0.00 | 0.00 | 0.00 | 51 | 1019.6 |
| 20260831145703 | 74 | 118 | 0.0 | 1.0 | 0.00 | 0.00 | 0.00 | 57 | 1018.6 |
| 20260831145621 | 74 | 132 | 4.0 | 6.0 | 0.00 | 0.00 | 0.00 | 50 | 1019.3 |
| 20260831145204 | 73 | 127 | 0.0 | 0.0 | 0.00 | 0.00 | 0.00 | 58 | 1018.7 |
| 20260831145117 | 74 | 204 | 2.0 | 4.0 | 0.00 | 0.00 | 0.00 | 51 | 1019.5 |
| 20260831144703 | 73 | 94 | 0.0 | 0.0 | 0.00 | 0.00 | 0.00 | 58 | 1018.8 |
| 20260831144613 | 74 | 125 | 1.0 | 2.0 | 0.00 | 0.00 | 0.00 | 51 | 1019.5 |
| 20260831144109 | 73 | 283 | 2.0 | 4.0 | 0.00 | 0.00 | 0.00 | 50 | 1019.6 |
| 20260831143703 | 73 | 71 | 0.0 | 0.0 | 0.00 | 0.00 | 0.00 | 59 | 1018.8 |
| 20260831143608 | 72 | 143 | 0.0 | 3.0 | 0.00 | 0.00 | 0.00 | 54 | 1019.5 |
| 20260831143204 | 72 | 328 | 0.0 | 0.0 | 0.00 | 0.00 | 0.00 | 59 | 1018.9 |
| 20260831143103 | 73 | 31 | 3.0 | 6.0 | 0.00 | 0.00 | 0.00 | 52 | 1019.6 |
| 20260831142600 | 73 | 8 | 1.0 | 3.0 | 0.00 | 0.00 | 0.00 | 51 | 1019.7 |
| 20260831142204 | 71 | 146 | 0.0 | 0.0 | 0.00 | 0.00 | 0.00 | 61 | 1018.9 |
| 20260831142055 | 73 | 167 | 2.0 | 2.0 | 0.00 | 0.00 | 0.00 | 52 | 1019.6 |
| 20260831141703 | 71 | 47 | 0.0 | 0.0 | 0.00 | 0.00 | 0.00 | 63 | 1018.9 |
| 20260831141554 | 72 | 103 | 1.0 | 3.0 | 0.00 | 0.00 | 0.00 | 53 | 1019.6 |
| 20260831141049 | 71 | 181 | 3.0 | 3.0 | 0.00 | 0.00 | 0.00 | 54 | 1019.9 |
| 20260831140703 | 70 | 92 | 0.0 | 1.0 | 0.00 | 0.00 | 0.00 | 63 | 1018.9 |
| 20260831140549 | 70 | 151 | 1.0 | 3.0 | 0.00 | 0.00 | 0.00 | 55 | 1019.6 |
| 20260831140204 | 70 | 297 | 0.0 | 1.0 | 0.00 | 0.00 | 0.00 | 64 | 1018.9 |
| 20260831140049 | 71 | 311 | 2.0 | 4.0 | 0.00 | 0.00 | 0.00 | 55 | 1019.6 |
| 20260831135704 | 69 | 2 | 0.0 | 3.0 | 0.00 | 0.00 | 0.00 | 66 | 1018.8 |
| 20260831135547 | 71 | 242 | 2.0 | 4.0 | 0.00 | 0.00 | 0.00 | 54 | 1019.6 |
| 20260831135203 | 69 | 0 | 0.0 | 0.0 | 0.00 | 0.00 | 0.00 | 67 | 1018.7 |
| 20260831135042 | 70 | 217 | 0.0 | 4.0 | 0.00 | 0.00 | 0.00 | 58 | 1019.6 |
| 20260831134703 | 68 | 324 | 0.0 | 0.0 | 0.00 | 0.00 | 0.00 | 68 | 1018.8 |
| 20260831134538 | 70 | 110 | 1.0 | 2.0 | 0.00 | 0.00 | 0.00 | 59 | 1019.6 |
| 20260831134204 | 68 | 316 | 0.0 | 0.0 | 0.00 | 0.00 | 0.00 | 70 | 1018.7 |
| 20260831134038 | 69 | 202 | 0.0 | 2.0 | 0.00 | 0.00 | 0.00 | 61 | 1019.4 |
| 20260831133704 | 68 | 308 | 0.0 | 0.0 | 0.00 | 0.00 | 0.00 | 71 | 1018.7 |
| 20260831133532 | 69 | 161 | 2.0 | 3.0 | 0.00 | 0.00 | 0.00 | 62 | 1019.5 |
| 20260831133203 | 67 | 309 | 0.0 | 0.0 | 0.00 | 0.00 | 0.00 | 72 | 1018.6 |
| 20260831133027 | 69 | 171 | 0.0 | 2.0 | 0.00 | 0.00 | 0.00 | 62 | 1019.5 |
| 20260831132703 | 67 | 304 | 0.0 | 0.0 | 0.00 | 0.00 | 0.00 | 73 | 1018.7 |
| 20260831132524 | 68 | 117 | 0.0 | 1.0 | 0.00 | 0.00 | 0.00 | 65 | 1019.4 |
| 20260831132203 | 66 | 325 | 1.0 | 5.0 | 0.00 | 0.00 | 0.00 | 74 | 1018.7 |
| 20260831132023 | 69 | 276 | 3.0 | 6.0 | 0.00 | 0.00 | 0.00 | 63 | 1019.3 |
| 20260831131704 | 66 | 96 | 0.0 | 2.0 | 0.00 | 0.00 | 0.00 | 77 | 1018.7 |
| 20260831131522 | 67 | 225 | 2.0 | 3.0 | 0.00 | 0.00 | 0.00 | 66 | 1019.4 |
| 20260831131204 | 65 | 300 | 0.0 | 0.0 | 0.00 | 0.00 | 0.00 | 78 | 1018.7 |
| 20260831131020 | 67 | 105 | 1.0 | 2.0 | 0.00 | 0.00 | 0.00 | 67 | 1019.4 |
| 20260831130519 | 67 | 122 | 0.0 | 3.0 | 0.00 | 0.00 | 0.00 | 68 | 1019.5 |
| 20260831130204 | 64 | 303 | 0.0 | 1.0 | 0.00 | 0.00 | 0.00 | 81 | 1018.8 |
| 20260831130015 | 66 | 235 | 0.0 | 3.0 | 0.00 | 0.00 | 0.00 | 70 | 1019.7 |
| 20260831125703 | 63 | 16 | 0.0 | 0.0 | 0.00 | 0.00 | 0.00 | 82 | 1018.8 |
| 20260831125508 | 66 | 232 | 2.0 | 3.0 | 0.00 | 0.00 | 0.00 | 69 | 1019.4 |
| 20260831125204 | 62 | 291 | 0.0 | 0.0 | 0.00 | 0.00 | 0.00 | 85 | 1018.7 |
| 20260831125004 | 65 | 218 | 2.0 | 4.0 | 0.00 | 0.00 | 0.00 | 69 | 1019.4 |
| 20260831124704 | 62 | 320 | 0.0 | 0.0 | 0.00 | 0.00 | 0.00 | 86 | 1018.8 |
| 20260831124500 | 65 | 217 | 2.0 | 2.0 | 0.00 | 0.00 | 0.00 | 71 | 1019.6 |
| 20260831124203 | 61 | 295 | 0.0 | 0.0 | 0.00 | 0.00 | 0.00 | 88 | 1018.7 |
| 20260831123955 | 64 | 168 | 2.0 | 3.0 | 0.00 | 0.00 | 0.00 | 71 | 1019.3 |
| 20260831123703 | 61 | 309 | 0.0 | 0.0 | 0.00 | 0.00 | 0.00 | 89 | 1018.7 |
| 20260831123454 | 64 | 81 | 2.0 | 4.0 | 0.00 | 0.00 | 0.00 | 73 | 1019.4 |
| 20260831123203 | 60 | 283 | 0.0 | 0.0 | 0.00 | 0.00 | 0.00 | 90 | 1018.7 |
| 20260831122949 | 63 | 154 | 2.0 | 3.0 | 0.00 | 0.00 | 0.00 | 76 | 1019.4 |
| 20260831122704 | 60 | 24 | 0.0 | 0.0 | 0.00 | 0.00 | 0.00 | 91 | 1018.8 |
| 20260831122444 | 62 | 111 | 0.0 | 1.0 | 0.00 | 0.00 | 0.00 | 77 | 1019.5 |
| 20260831122203 | 59 | 8 | 0.0 | 0.0 | 0.00 | 0.00 | 0.00 | 91 | 1018.7 |
| 20260831121940 | 62 | 124 | 1.0 | 2.0 | 0.00 | 0.00 | 0.00 | 78 | 1019.5 |
| 20260831121703 | 59 | 313 | 0.0 | 0.0 | 0.00 | 0.00 | 0.00 | 91 | 1018.6 |
| 20260831121435 | 62 | 59 | 0.0 | 2.0 | 0.00 | 0.00 | 0.00 | 79 | 1019.2 |
| 20260831121203 | 58 | 279 | 0.0 | 0.0 | 0.00 | 0.00 | 0.00 | 92 | 1018.5 |
| 20260831120931 | 61 | 144 | 0.0 | 2.0 | 0.00 | 0.00 | 0.00 | 80 | 1019.1 |
| 20260831120704 | 58 | 0 | 0.0 | 0.0 | 0.00 | 0.00 | 0.00 | 92 | 1018.4 |
| 20260831120425 | 61 | 153 | 0.0 | 2.0 | 0.00 | 0.00 | 0.00 | 82 | 1019.1 |
| 20260831120204 | 58 | 337 | 0.0 | 0.0 | 0.00 | 0.00 | 0.00 | 92 | 1018.5 |
| 20260831115925 | 60 | 150 | 0.0 | 0.0 | 0.00 | 0.00 | 0.00 | 86 | 1019.2 |
| 20260831115704 | 58 | 305 | 0.0 | 0.0 | 0.00 | 0.00 | 0.00 | 92 | 1018.4 |
| 20260831115422 | 59 | 147 | 0.0 | 0.0 | 0.00 | 0.00 | 0.00 | 87 | 1019.1 |
| 20260831114921 | 59 | 153 | 0.0 | 0.0 | 0.00 | 0.00 | 0.00 | 89 | 1019.0 |
| 20260831114704 | 57 | 307 | 0.0 | 0.0 | 0.00 | 0.00 | 0.00 | 92 | 1018.4 |
| 20260831114420 | 59 | 111 | 0.0 | 0.0 | 0.00 | 0.00 | 0.00 | 91 | 1019.0 |
| 20260831114204 | 57 | 28 | 0.0 | 0.0 | 0.00 | 0.00 | 0.00 | 92 | 1018.3 |
| 20260831113916 | 58 | 126 | 0.0 | 0.0 | 0.00 | 0.00 | 0.00 | 93 | 1019.1 |
| 20260831113703 | 57 | 28 | 0.0 | 0.0 | 0.00 | 0.00 | 0.00 | 92 | 1018.3 |
| 20260831113410 | 57 | 111 | 0.0 | 0.0 | 0.00 | 0.00 | 0.00 | 94 | 1019.2 |
| 20260831113203 | 57 | 58 | 0.0 | 0.0 | 0.00 | 0.00 | 0.00 | 91 | 1018.3 |
| 20260831112905 | 57 | 111 | 0.0 | 0.0 | 0.00 | 0.00 | 0.00 | 94 | 1019.0 |
| 20260831112703 | 56 | 58 | 0.0 | 0.0 | 0.00 | 0.00 | 0.00 | 91 | 1018.2 |
| 20260831112405 | 57 | 110 | 0.0 | 0.0 | 0.00 | 0.00 | 0.00 | 94 | 1019.0 |
| 20260831112204 | 56 | 58 | 0.0 | 0.0 | 0.00 | 0.00 | 0.00 | 91 | 1018.2 |
| 20260831111900 | 56 | 128 | 0.0 | 0.0 | 0.00 | 0.00 | 0.00 | 94 | 1018.8 |
| 20260831111704 | 56 | 58 | 0.0 | 0.0 | 0.00 | 0.00 | 0.00 | 91 | 1018.1 |
| 20260831111356 | 56 | 122 | 0.0 | 0.0 | 0.00 | 0.00 | 0.00 | 94 | 1018.9 |
| 20260831111203 | 56 | 58 | 0.0 | 0.0 | 0.00 | 0.00 | 0.00 | 91 | 1018.2 |
| 20260831110852 | 56 | 115 | 0.0 | 0.0 | 0.00 | 0.00 | 0.00 | 94 | 1018.9 |
| 20260831110703 | 56 | 58 | 0.0 | 0.0 | 0.00 | 0.00 | 0.00 | 91 | 1018.2 |
| 20260831110352 | 56 | 135 | 0.0 | 0.0 | 0.00 | 0.00 | 0.00 | 94 | 1018.8 |
| 20260831110204 | 56 | 58 | 0.0 | 0.0 | 0.00 | 0.00 | 0.00 | 91 | 1018.2 |
| 20260831105851 | 56 | 115 | 0.0 | 0.0 | 0.00 | 0.00 | 0.00 | 94 | 1019.0 |
| 20260831105703 | 56 | 58 | 0.0 | 0.0 | 0.00 | 0.00 | 0.00 | 91 | 1018.2 |
| 20260831105347 | 56 | 134 | 0.0 | 0.0 | 0.00 | 0.00 | 0.00 | 94 | 1018.9 |
| 20260831105204 | 56 | 58 | 0.0 | 0.0 | 0.00 | 0.00 | 0.00 | 91 | 1018.1 |
| 20260831104842 | 56 | 99 | 0.0 | 0.0 | 0.00 | 0.00 | 0.00 | 94 | 1018.8 |
| 20260831104703 | 56 | 58 | 0.0 | 0.0 | 0.00 | 0.00 | 0.00 | 91 | 1018.1 |
| 20260831104338 | 56 | 87 | 0.0 | 0.0 | 0.00 | 0.00 | 0.00 | 94 | 1018.9 |
| 20260831104203 | 56 | 58 | 0.0 | 0.0 | 0.00 | 0.00 | 0.00 | 91 | 1018.1 |
| 20260831103832 | 56 | 119 | 0.0 | 0.0 | 0.00 | 0.00 | 0.00 | 94 | 1018.7 |
| 20260831103328 | 56 | 120 | 0.0 | 0.0 | 0.00 | 0.00 | 0.00 | 93 | 1018.8 |
| 20260831103204 | 57 | 58 | 0.0 | 0.0 | 0.00 | 0.00 | 0.00 | 90 | 1018.0 |
| 20260831102823 | 56 | 123 | 0.0 | 0.0 | 0.00 | 0.00 | 0.00 | 93 | 1018.7 |
| 20260831102704 | 57 | 58 | 0.0 | 0.0 | 0.00 | 0.00 | 0.00 | 90 | 1018.0 |
| 20260831102318 | 56 | 137 | 0.0 | 0.0 | 0.00 | 0.00 | 0.00 | 93 | 1018.6 |
| 20260831102204 | 57 | 58 | 0.0 | 0.0 | 0.00 | 0.00 | 0.00 | 90 | 1017.9 |
| 20260831101813 | 56 | 126 | 0.0 | 0.0 | 0.00 | 0.00 | 0.00 | 93 | 1018.6 |
| 20260831101703 | 57 | 58 | 0.0 | 0.0 | 0.00 | 0.00 | 0.00 | 91 | 1017.8 |
| 20260831101308 | 56 | 131 | 0.0 | 0.0 | 0.00 | 0.00 | 0.00 | 93 | 1018.5 |
| 20260831101203 | 57 | 58 | 0.0 | 0.0 | 0.00 | 0.00 | 0.00 | 91 | 1017.7 |
| 20260831100804 | 56 | 98 | 0.0 | 0.0 | 0.00 | 0.00 | 0.00 | 93 | 1018.5 |
| 20260831100703 | 57 | 58 | 0.0 | 0.0 | 0.00 | 0.00 | 0.00 | 90 | 1017.6 |
| 20260831100300 | 57 | 109 | 0.0 | 0.0 | 0.00 | 0.00 | 0.00 | 93 | 1018.4 |
| 20260831100204 | 57 | 58 | 0.0 | 0.0 | 0.00 | 0.00 | 0.00 | 90 | 1017.6 |
| 20260831095759 | 57 | 109 | 0.0 | 0.0 | 0.00 | 0.00 | 0.00 | 93 | 1018.4 |
| 20260831095254 | 57 | 103 | 0.0 | 0.0 | 0.00 | 0.00 | 0.00 | 92 | 1018.3 |
| 20260831095203 | 58 | 63 | 0.0 | 0.0 | 0.00 | 0.00 | 0.00 | 91 | 1017.5 |
| 20260831094754 | 57 | 110 | 0.0 | 0.0 | 0.00 | 0.00 | 0.00 | 92 | 1018.2 |
| 20260831094703 | 58 | 63 | 0.0 | 0.0 | 0.00 | 0.00 | 0.00 | 91 | 1017.4 |
| 20260831094250 | 57 | 115 | 0.0 | 0.0 | 0.00 | 0.00 | 0.00 | 92 | 1018.1 |
| 20260831094203 | 58 | 63 | 0.0 | 0.0 | 0.00 | 0.00 | 0.00 | 90 | 1017.3 |
| 20260831093746 | 57 | 104 | 0.0 | 0.0 | 0.00 | 0.00 | 0.00 | 92 | 1018.1 |
| 20260831093703 | 58 | 63 | 0.0 | 0.0 | 0.00 | 0.00 | 0.00 | 90 | 1017.2 |
| 20260831093246 | 58 | 110 | 0.0 | 0.0 | 0.00 | 0.00 | 0.00 | 91 | 1017.9 |
| 20260831093203 | 58 | 63 | 0.0 | 0.0 | 0.00 | 0.00 | 0.00 | 90 | 1017.3 |
| 20260831092742 | 58 | 116 | 0.0 | 0.0 | 0.00 | 0.00 | 0.00 | 91 | 1017.9 |
| 20260831092704 | 58 | 63 | 0.0 | 0.0 | 0.00 | 0.00 | 0.00 | 90 | 1017.3 |
| 20260831092238 | 58 | 120 | 0.0 | 0.0 | 0.00 | 0.00 | 0.00 | 91 | 1018.2 |
| 20260831092203 | 58 | 59 | 0.0 | 0.0 | 0.00 | 0.00 | 0.00 | 90 | 1017.3 |
| 20260831091737 | 58 | 106 | 0.0 | 0.0 | 0.00 | 0.00 | 0.00 | 91 | 1017.9 |
| 20260831091703 | 58 | 5 | 0.0 | 0.0 | 0.00 | 0.00 | 0.00 | 91 | 1017.2 |
| 20260831091233 | 58 | 100 | 0.0 | 1.0 | 0.00 | 0.00 | 0.00 | 92 | 1017.9 |
| 20260831091204 | 59 | 5 | 0.0 | 0.0 | 0.00 | 0.00 | 0.00 | 91 | 1017.2 |
| 20260831090729 | 58 | 286 | 2.0 | 2.0 | 0.00 | 0.00 | 0.00 | 92 | 1017.9 |
| 20260831090704 | 59 | 312 | 0.0 | 0.0 | 0.00 | 0.00 | 0.00 | 91 | 1017.1 |
| 20260831090225 | 59 | 175 | 2.0 | 2.0 | 0.00 | 0.00 | 0.00 | 93 | 1017.9 |
| 20260831085720 | 59 | 144 | 0.0 | 2.0 | 0.00 | 0.00 | 0.00 | 93 | 1017.4 |
| 20260831085704 | 59 | 294 | 0.0 | 0.0 | 0.00 | 0.00 | 0.00 | 90 | 1016.8 |
| 20260831085215 | 58 | 306 | 0.0 | 1.0 | 0.00 | 0.00 | 0.00 | 94 | 1017.5 |
| 20260831085203 | 59 | 299 | 0.0 | 0.0 | 0.00 | 0.00 | 0.00 | 90 | 1016.7 |
| 20260831084710 | 58 | 106 | 0.0 | 0.0 | 0.00 | 0.00 | 0.00 | 94 | 1017.5 |
| 20260831084703 | 59 | 300 | 0.0 | 0.0 | 0.00 | 0.00 | 0.00 | 90 | 1016.7 |
| 20260831084207 | 58 | 196 | 0.0 | 0.0 | 0.00 | 0.00 | 0.00 | 94 | 1017.7 |
| 20260831084203 | 59 | 299 | 0.0 | 0.0 | 0.00 | 0.00 | 0.00 | 90 | 1016.7 |
| 20260831083702 | 58 | 129 | 0.0 | 0.0 | 0.00 | 0.00 | 0.00 | 94 | 1017.5 |
| 20260831083203 | 59 | 307 | 0.0 | 0.0 | 0.00 | 0.00 | 0.00 | 90 | 1016.7 |
| 20260831083158 | 58 | 129 | 0.0 | 0.0 | 0.00 | 0.00 | 0.00 | 94 | 1017.6 |
| 20260831082656 | 58 | 111 | 0.0 | 0.0 | 0.00 | 0.00 | 0.00 | 94 | 1017.5 |
| 20260831082203 | 59 | 329 | 0.0 | 0.0 | 0.00 | 0.00 | 0.00 | 90 | 1016.7 |
| 20260831082151 | 58 | 143 | 0.0 | 0.0 | 0.00 | 0.00 | 0.00 | 94 | 1017.2 |
| 20260831081704 | 60 | 329 | 0.0 | 0.0 | 0.00 | 0.00 | 0.00 | 90 | 1016.6 |
| 20260831081647 | 59 | 102 | 0.0 | 0.0 | 0.00 | 0.00 | 0.00 | 94 | 1017.4 |
| 20260831081143 | 59 | 102 | 0.0 | 0.0 | 0.00 | 0.00 | 0.00 | 94 | 1017.6 |
| 20260831080639 | 59 | 126 | 0.0 | 0.0 | 0.00 | 0.00 | 0.00 | 94 | 1017.5 |
| 20260831080202 | 60 | 309 | 0.0 | 0.0 | 0.00 | 0.00 | 0.00 | 90 | 1016.6 |
| 20260831080138 | 59 | 124 | 0.0 | 0.0 | 0.00 | 0.00 | 0.00 | 94 | 1017.4 |
| 20260831075702 | 60 | 309 | 0.0 | 0.0 | 0.00 | 0.00 | 0.00 | 90 | 1016.5 |
| 20260831075635 | 59 | 114 | 0.0 | 0.0 | 0.00 | 0.00 | 0.00 | 94 | 1017.2 |
| 20260831075203 | 60 | 309 | 0.0 | 0.0 | 0.00 | 0.00 | 0.00 | 90 | 1016.5 |
| 20260831075130 | 59 | 83 | 0.0 | 0.0 | 0.00 | 0.00 | 0.00 | 94 | 1017.3 |
| 20260831074703 | 60 | 309 | 0.0 | 0.0 | 0.00 | 0.00 | 0.00 | 90 | 1016.5 |
| 20260831074629 | 59 | 111 | 0.0 | 0.0 | 0.00 | 0.00 | 0.00 | 94 | 1017.2 |
| 20260831074202 | 60 | 309 | 0.0 | 0.0 | 0.00 | 0.00 | 0.00 | 89 | 1016.5 |
| 20260831074124 | 59 | 92 | 0.0 | 0.0 | 0.00 | 0.00 | 0.00 | 94 | 1017.2 |
| 20260831073702 | 60 | 309 | 0.0 | 0.0 | 0.00 | 0.00 | 0.00 | 89 | 1016.4 |
| 20260831073624 | 59 | 116 | 0.0 | 0.0 | 0.00 | 0.00 | 0.00 | 94 | 1017.1 |
| 20260831073202 | 60 | 0 | 0.0 | 0.0 | 0.00 | 0.00 | 0.00 | 89 | 1016.4 |
| 20260831073124 | 59 | 125 | 0.0 | 0.0 | 0.00 | 0.00 | 0.00 | 94 | 1017.2 |
| 20260831072703 | 60 | 0 | 0.0 | 0.0 | 0.00 | 0.00 | 0.00 | 89 | 1016.3 |
| 20260831072619 | 59 | 104 | 0.0 | 0.0 | 0.00 | 0.00 | 0.00 | 94 | 1017.2 |
| 20260831072116 | 59 | 138 | 0.0 | 0.0 | 0.00 | 0.00 | 0.00 | 94 | 1016.9 |
| 20260831071702 | 61 | 0 | 0.0 | 0.0 | 0.00 | 0.00 | 0.00 | 89 | 1016.3 |
| 20260831071614 | 59 | 146 | 0.0 | 0.0 | 0.00 | 0.00 | 0.00 | 94 | 1016.9 |
| 20260831071203 | 61 | 0 | 0.0 | 0.0 | 0.00 | 0.00 | 0.00 | 89 | 1016.2 |
| 20260831071110 | 60 | 137 | 0.0 | 0.0 | 0.00 | 0.00 | 0.00 | 94 | 1016.9 |
| 20260831070703 | 61 | 0 | 0.0 | 0.0 | 0.00 | 0.00 | 0.00 | 89 | 1016.2 |
| 20260831070609 | 60 | 137 | 0.0 | 0.0 | 0.00 | 0.00 | 0.00 | 94 | 1016.7 |
| 20260831070202 | 61 | 0 | 0.0 | 0.0 | 0.00 | 0.00 | 0.00 | 89 | 1016.2 |
| 20260831070103 | 60 | 137 | 0.0 | 0.0 | 0.00 | 0.00 | 0.00 | 94 | 1017.1 |
| 20260831065601 | 60 | 133 | 0.0 | 0.0 | 0.00 | 0.00 | 0.00 | 94 | 1016.7 |
| 20260831065203 | 61 | 0 | 0.0 | 0.0 | 0.00 | 0.00 | 0.00 | 88 | 1016.1 |
| 20260831065056 | 60 | 112 | 0.0 | 0.0 | 0.00 | 0.00 | 0.00 | 94 | 1016.7 |
| 20260831064702 | 61 | 0 | 0.0 | 0.0 | 0.00 | 0.00 | 0.00 | 88 | 1016.1 |
| 20260831064551 | 60 | 226 | 0.0 | 0.0 | 0.00 | 0.00 | 0.00 | 94 | 1016.8 |
| 20260831064202 | 62 | 0 | 0.0 | 0.0 | 0.00 | 0.00 | 0.00 | 88 | 1016.1 |
| 20260831064046 | 60 | 136 | 0.0 | 0.0 | 0.00 | 0.00 | 0.00 | 94 | 1016.9 |
| 20260831063542 | 60 | 138 | 0.0 | 0.0 | 0.00 | 0.00 | 0.00 | 94 | 1016.9 |
| 20260831063203 | 62 | 0 | 0.0 | 0.0 | 0.00 | 0.00 | 0.00 | 88 | 1016.1 |
| 20260831063037 | 60 | 140 | 0.0 | 0.0 | 0.00 | 0.00 | 0.00 | 94 | 1016.8 |
| 20260831062532 | 61 | 129 | 0.0 | 0.0 | 0.00 | 0.00 | 0.00 | 93 | 1016.8 |
| 20260831062202 | 62 | 0 | 0.0 | 0.0 | 0.00 | 0.00 | 0.00 | 88 | 1016.1 |
| 20260831062031 | 61 | 129 | 0.0 | 0.0 | 0.00 | 0.00 | 0.00 | 93 | 1016.7 |
| 20260831061702 | 62 | 0 | 0.0 | 0.0 | 0.00 | 0.00 | 0.00 | 88 | 1016.1 |
| 20260831061529 | 61 | 134 | 0.0 | 0.0 | 0.00 | 0.00 | 0.00 | 93 | 1016.8 |
| 20260831061202 | 63 | 0 | 0.0 | 0.0 | 0.00 | 0.00 | 0.00 | 88 | 1016.0 |
| 20260831061026 | 61 | 155 | 0.0 | 0.0 | 0.00 | 0.00 | 0.00 | 93 | 1016.8 |
| 20260831060703 | 63 | 0 | 0.0 | 0.0 | 0.00 | 0.00 | 0.00 | 87 | 1015.9 |
| 20260831060526 | 61 | 162 | 0.0 | 0.0 | 0.00 | 0.00 | 0.00 | 93 | 1016.6 |
| 20260831060202 | 63 | 0 | 0.0 | 0.0 | 0.00 | 0.00 | 0.00 | 87 | 1016.0 |
| 20260831060021 | 61 | 137 | 0.0 | 0.0 | 0.00 | 0.00 | 0.00 | 93 | 1016.7 |
| 20260831055702 | 63 | 67 | 0.0 | 0.0 | 0.00 | 0.00 | 0.00 | 87 | 1016.1 |
| 20260831055515 | 62 | 130 | 0.0 | 0.0 | 0.00 | 0.00 | 0.00 | 93 | 1016.6 |
| 20260831055202 | 63 | 67 | 0.0 | 0.0 | 0.00 | 0.00 | 0.00 | 87 | 1015.9 |
| 20260831055011 | 62 | 130 | 0.0 | 0.0 | 0.00 | 0.00 | 0.00 | 92 | 1016.8 |
| 20260831054702 | 63 | 67 | 0.0 | 0.0 | 0.00 | 0.00 | 0.00 | 87 | 1015.8 |
| 20260831054505 | 62 | 130 | 0.0 | 0.0 | 0.00 | 0.00 | 0.00 | 92 | 1016.8 |
| 20260831054202 | 64 | 67 | 0.0 | 0.0 | 0.00 | 0.00 | 0.00 | 87 | 1015.9 |
| 20260831054004 | 62 | 140 | 0.0 | 0.0 | 0.00 | 0.00 | 0.00 | 92 | 1016.6 |
| 20260831053703 | 64 | 67 | 0.0 | 0.0 | 0.00 | 0.00 | 0.00 | 87 | 1015.9 |
| 20260831053502 | 62 | 145 | 0.0 | 0.0 | 0.00 | 0.00 | 0.00 | 92 | 1016.8 |
| 20260831052957 | 62 | 148 | 0.0 | 0.0 | 0.00 | 0.00 | 0.00 | 92 | 1016.6 |
| 20260831052451 | 62 | 129 | 0.0 | 0.0 | 0.00 | 0.00 | 0.00 | 91 | 1016.5 |
| 20260831052203 | 64 | 67 | 0.0 | 0.0 | 0.00 | 0.00 | 0.00 | 86 | 1015.7 |
| 20260831051950 | 63 | 137 | 0.0 | 0.0 | 0.00 | 0.00 | 0.00 | 91 | 1016.6 |
| 20260831051702 | 64 | 67 | 0.0 | 0.0 | 0.00 | 0.00 | 0.00 | 86 | 1015.7 |
| 20260831051449 | 63 | 126 | 0.0 | 0.0 | 0.00 | 0.00 | 0.00 | 91 | 1016.6 |
| 20260831050943 | 63 | 136 | 0.0 | 0.0 | 0.00 | 0.00 | 0.00 | 91 | 1016.4 |
| 20260831050702 | 65 | 67 | 0.0 | 0.0 | 0.00 | 0.00 | 0.00 | 86 | 1015.6 |
| 20260831050443 | 63 | 139 | 0.0 | 0.0 | 0.00 | 0.00 | 0.00 | 90 | 1016.5 |
| 20260831050202 | 65 | 67 | 0.0 | 0.0 | 0.00 | 0.00 | 0.00 | 86 | 1015.6 |
| 20260831045942 | 63 | 155 | 0.0 | 0.0 | 0.00 | 0.00 | 0.00 | 90 | 1016.4 |
| 20260831045702 | 65 | 67 | 0.0 | 0.0 | 0.00 | 0.00 | 0.00 | 86 | 1015.7 |
| 20260831045441 | 64 | 134 | 0.0 | 0.0 | 0.00 | 0.00 | 0.00 | 90 | 1016.4 |
| 20260831045203 | 65 | 67 | 0.0 | 0.0 | 0.00 | 0.00 | 0.00 | 86 | 1015.6 |
| 20260831044941 | 64 | 134 | 0.0 | 0.0 | 0.00 | 0.00 | 0.00 | 89 | 1016.4 |
| 20260831044702 | 66 | 67 | 0.0 | 0.0 | 0.00 | 0.00 | 0.00 | 86 | 1015.6 |
| 20260831044437 | 64 | 177 | 0.0 | 0.0 | 0.00 | 0.00 | 0.00 | 89 | 1016.5 |
| 20260831044202 | 66 | 67 | 0.0 | 0.0 | 0.00 | 0.00 | 0.00 | 86 | 1015.5 |
| 20260831043932 | 64 | 138 | 0.0 | 0.0 | 0.00 | 0.00 | 0.00 | 89 | 1016.1 |
| 20260831043703 | 66 | 67 | 0.0 | 0.0 | 0.00 | 0.00 | 0.00 | 85 | 1015.5 |
| 20260831043432 | 64 | 112 | 0.0 | 0.0 | 0.00 | 0.00 | 0.00 | 89 | 1016.2 |
| 20260831043202 | 66 | 205 | 0.0 | 0.0 | 0.00 | 0.00 | 0.00 | 85 | 1015.4 |
| 20260831042928 | 65 | 112 | 0.0 | 0.0 | 0.00 | 0.00 | 0.00 | 89 | 1016.1 |
| 20260831042703 | 66 | 205 | 0.0 | 0.0 | 0.00 | 0.00 | 0.00 | 85 | 1015.3 |
| 20260831042427 | 65 | 109 | 0.0 | 0.0 | 0.00 | 0.00 | 0.00 | 88 | 1016.2 |
| 20260831042202 | 66 | 205 | 0.0 | 0.0 | 0.00 | 0.00 | 0.00 | 85 | 1015.2 |
| 20260831041922 | 65 | 119 | 0.0 | 0.0 | 0.00 | 0.00 | 0.00 | 89 | 1015.9 |
| 20260831041702 | 67 | 205 | 0.0 | 0.0 | 0.00 | 0.00 | 0.00 | 85 | 1015.2 |
| 20260831041422 | 65 | 111 | 0.0 | 0.0 | 0.00 | 0.00 | 0.00 | 88 | 1016.2 |
| 20260831041202 | 67 | 205 | 0.0 | 0.0 | 0.00 | 0.00 | 0.00 | 85 | 1015.1 |
| 20260831040917 | 65 | 133 | 0.0 | 0.0 | 0.00 | 0.00 | 0.00 | 88 | 1016.0 |
| 20260831040702 | 67 | 205 | 0.0 | 0.0 | 0.00 | 0.00 | 0.00 | 84 | 1015.2 |
| 20260831040417 | 66 | 128 | 0.0 | 0.0 | 0.00 | 0.00 | 0.00 | 88 | 1015.9 |
| 20260831040205 | 67 | 205 | 0.0 | 0.0 | 0.00 | 0.00 | 0.00 | 84 | 1015.2 |
| 20260831035915 | 66 | 135 | 0.0 | 0.0 | 0.00 | 0.00 | 0.00 | 87 | 1015.8 |
| 20260831035414 | 66 | 158 | 0.0 | 0.0 | 0.00 | 0.00 | 0.00 | 87 | 1016.0 |
| 20260831035203 | 68 | 234 | 0.0 | 0.0 | 0.00 | 0.00 | 0.00 | 84 | 1015.2 |
| 20260831034914 | 66 | 149 | 0.0 | 0.0 | 0.00 | 0.00 | 0.00 | 87 | 1016.1 |
| 20260831034702 | 68 | 234 | 0.0 | 0.0 | 0.00 | 0.00 | 0.00 | 83 | 1015.2 |
| 20260831034410 | 66 | 103 | 0.0 | 0.0 | 0.00 | 0.00 | 0.00 | 86 | 1016.0 |
| 20260831034203 | 68 | 234 | 0.0 | 0.0 | 0.00 | 0.00 | 0.00 | 83 | 1015.2 |
| 20260831033905 | 67 | 116 | 0.0 | 0.0 | 0.00 | 0.00 | 0.00 | 86 | 1016.0 |
| 20260831033702 | 68 | 234 | 0.0 | 0.0 | 0.00 | 0.00 | 0.00 | 83 | 1015.1 |
| 20260831033400 | 67 | 70 | 0.0 | 0.0 | 0.00 | 0.00 | 0.00 | 86 | 1015.8 |
| 20260831033202 | 68 | 234 | 0.0 | 0.0 | 0.00 | 0.00 | 0.00 | 83 | 1015.2 |
| 20260831032856 | 67 | 129 | 0.0 | 0.0 | 0.00 | 0.00 | 0.00 | 86 | 1016.0 |
| 20260831032702 | 69 | 233 | 0.0 | 0.0 | 0.00 | 0.00 | 0.00 | 83 | 1015.2 |
| 20260831032349 | 67 | 119 | 0.0 | 0.0 | 0.00 | 0.00 | 0.00 | 85 | 1016.1 |
| 20260831032203 | 69 | 233 | 0.0 | 0.0 | 0.00 | 0.00 | 0.00 | 82 | 1015.2 |
| 20260831031845 | 68 | 99 | 0.0 | 1.0 | 0.00 | 0.00 | 0.00 | 85 | 1016.0 |
| 20260831031702 | 69 | 233 | 0.0 | 0.0 | 0.00 | 0.00 | 0.00 | 82 | 1015.3 |
| 20260831031344 | 68 | 119 | 0.0 | 0.0 | 0.00 | 0.00 | 0.00 | 85 | 1016.1 |
| 20260831031202 | 69 | 232 | 0.0 | 0.0 | 0.00 | 0.00 | 0.00 | 82 | 1015.3 |
| 20260831030839 | 68 | 264 | 0.0 | 0.0 | 0.00 | 0.00 | 0.00 | 85 | 1015.9 |
| 20260831030702 | 69 | 223 | 0.0 | 0.0 | 0.00 | 0.00 | 0.00 | 81 | 1015.3 |
| 20260831030338 | 68 | 186 | 0.0 | 1.0 | 0.00 | 0.00 | 0.00 | 84 | 1016.0 |
| 20260831030203 | 69 | 72 | 0.0 | 0.0 | 0.00 | 0.00 | 0.00 | 81 | 1015.1 |
| 20260831025837 | 68 | 155 | 0.0 | 0.0 | 0.00 | 0.00 | 0.00 | 84 | 1016.1 |
| 20260831025702 | 70 | 69 | 0.0 | 0.0 | 0.00 | 0.00 | 0.00 | 81 | 1015.2 |
| 20260831025337 | 68 | 132 | 0.0 | 0.0 | 0.00 | 0.00 | 0.00 | 84 | 1016.3 |
| 20260831025203 | 70 | 69 | 0.0 | 0.0 | 0.00 | 0.00 | 0.00 | 80 | 1015.2 |
| 20260831024832 | 68 | 117 | 0.0 | 0.0 | 0.00 | 0.00 | 0.00 | 83 | 1016.1 |
| 20260831024702 | 70 | 69 | 0.0 | 0.0 | 0.00 | 0.00 | 0.00 | 80 | 1015.2 |
| 20260831024332 | 68 | 114 | 0.0 | 0.0 | 0.00 | 0.00 | 0.00 | 83 | 1016.0 |
| 20260831024203 | 70 | 69 | 0.0 | 0.0 | 0.00 | 0.00 | 0.00 | 80 | 1015.3 |
| 20260831023831 | 69 | 147 | 0.0 | 1.0 | 0.00 | 0.00 | 0.00 | 82 | 1016.0 |
| 20260831023330 | 69 | 108 | 0.0 | 2.0 | 0.00 | 0.00 | 0.00 | 82 | 1015.9 |
| 20260831023203 | 71 | 28 | 0.0 | 0.0 | 0.00 | 0.00 | 0.00 | 79 | 1015.2 |
| 20260831022825 | 69 | 138 | 0.0 | 1.0 | 0.00 | 0.00 | 0.00 | 81 | 1016.1 |
| 20260831022324 | 69 | 125 | 0.0 | 1.0 | 0.00 | 0.00 | 0.00 | 81 | 1016.0 |
| 20260831022202 | 71 | 96 | 0.0 | 0.0 | 0.00 | 0.00 | 0.00 | 78 | 1015.3 |
| 20260831021819 | 69 | 44 | 0.0 | 2.0 | 0.00 | 0.00 | 0.00 | 80 | 1016.0 |
| 20260831021702 | 71 | 100 | 0.0 | 0.0 | 0.00 | 0.00 | 0.00 | 77 | 1015.2 |
| 20260831021319 | 70 | 119 | 0.0 | 0.0 | 0.00 | 0.00 | 0.00 | 79 | 1015.7 |
| 20260831021202 | 71 | 340 | 0.0 | 0.0 | 0.00 | 0.00 | 0.00 | 76 | 1015.1 |
| 20260831020815 | 70 | 57 | 0.0 | 1.0 | 0.00 | 0.00 | 0.00 | 78 | 1016.0 |
| 20260831020702 | 71 | 18 | 0.0 | 0.0 | 0.00 | 0.00 | 0.00 | 76 | 1015.2 |
| 20260831020314 | 71 | 44 | 2.0 | 4.0 | 0.00 | 0.00 | 0.00 | 76 | 1015.9 |
| 20260831020202 | 72 | 9 | 0.0 | 7.0 | 0.00 | 0.00 | 0.00 | 76 | 1015.2 |
| 20260831015810 | 71 | 130 | 1.0 | 4.0 | 0.00 | 0.00 | 0.00 | 74 | 1016.0 |
| 20260831015306 | 72 | 294 | 4.0 | 8.0 | 0.00 | 0.00 | 0.00 | 72 | 1016.0 |
| 20260831015202 | 72 | 310 | 5.0 | 14.0 | 0.00 | 0.00 | 0.00 | 75 | 1015.1 |
| 20260831014805 | 72 | 121 | 0.0 | 2.0 | 0.00 | 0.00 | 0.00 | 70 | 1015.9 |
| 20260831014702 | 72 | 323 | 0.0 | 0.0 | 0.00 | 0.00 | 0.00 | 74 | 1015.0 |
| 20260831014300 | 72 | 64 | 0.0 | 1.0 | 0.00 | 0.00 | 0.00 | 72 | 1015.6 |
| 20260831014202 | 72 | 301 | 0.0 | 1.0 | 0.00 | 0.00 | 0.00 | 75 | 1014.8 |
| 20260831013757 | 71 | 163 | 1.0 | 6.0 | 0.00 | 0.00 | 0.00 | 72 | 1015.6 |
| 20260831013703 | 72 | 309 | 1.0 | 5.0 | 0.00 | 0.00 | 0.00 | 74 | 1014.8 |
| 20260831013256 | 71 | 177 | 1.0 | 1.0 | 0.00 | 0.00 | 0.00 | 73 | 1015.4 |
| 20260831013202 | 72 | 190 | 0.0 | 0.0 | 0.00 | 0.00 | 0.00 | 74 | 1014.7 |
| 20260831012751 | 71 | 184 | 1.0 | 1.0 | 0.00 | 0.00 | 0.00 | 73 | 1015.5 |
| 20260831012702 | 72 | 229 | 0.0 | 0.0 | 0.00 | 0.00 | 0.00 | 74 | 1014.7 |
| 20260831012246 | 71 | 140 | 0.0 | 0.0 | 0.00 | 0.00 | 0.00 | 73 | 1015.4 |
| 20260831011745 | 71 | 142 | 0.0 | 0.0 | 0.00 | 0.00 | 0.00 | 72 | 1015.4 |
| 20260831011702 | 72 | 250 | 0.0 | 0.0 | 0.00 | 0.00 | 0.00 | 73 | 1014.6 |
| 20260831011241 | 71 | 69 | 0.0 | 1.0 | 0.00 | 0.00 | 0.00 | 72 | 1015.2 |
| 20260831011203 | 72 | 250 | 0.0 | 0.0 | 0.00 | 0.00 | 0.00 | 73 | 1014.5 |
| 20260831010737 | 71 | 142 | 0.0 | 0.0 | 0.00 | 0.00 | 0.00 | 72 | 1015.2 |
| 20260831010703 | 72 | 250 | 0.0 | 0.0 | 0.00 | 0.00 | 0.00 | 73 | 1014.4 |
| 20260831010231 | 71 | 148 | 0.0 | 0.0 | 0.00 | 0.00 | 0.00 | 73 | 1015.1 |
| 20260831010202 | 73 | 296 | 0.0 | 0.0 | 0.00 | 0.00 | 0.00 | 73 | 1014.3 |
| 20260831005727 | 71 | 114 | 0.0 | 0.0 | 0.00 | 0.00 | 0.00 | 73 | 1015.1 |
| 20260831005222 | 71 | 142 | 0.0 | 0.0 | 0.00 | 0.00 | 0.00 | 73 | 1015.1 |
| 20260831005203 | 73 | 196 | 0.0 | 0.0 | 0.00 | 0.00 | 0.00 | 72 | 1014.3 |
| 20260831004717 | 72 | 129 | 0.0 | 0.0 | 0.00 | 0.00 | 0.00 | 73 | 1015.0 |
| 20260831004703 | 73 | 195 | 0.0 | 0.0 | 0.00 | 0.00 | 0.00 | 72 | 1014.2 |
| 20260831004213 | 72 | 135 | 0.0 | 0.0 | 0.00 | 0.00 | 0.00 | 73 | 1014.8 |
| 20260831004202 | 73 | 192 | 0.0 | 0.0 | 0.00 | 0.00 | 0.00 | 72 | 1014.0 |
| 20260831003708 | 72 | 115 | 0.0 | 0.0 | 0.00 | 0.00 | 0.00 | 72 | 1014.7 |
| 20260831003702 | 74 | 192 | 0.0 | 0.0 | 0.00 | 0.00 | 0.00 | 72 | 1014.1 |
| 20260831003205 | 73 | 110 | 0.0 | 0.0 | 0.00 | 0.00 | 0.00 | 71 | 1014.7 |
| 20260831003203 | 74 | 190 | 0.0 | 0.0 | 0.00 | 0.00 | 0.00 | 71 | 1014.0 |
| 20260831002703 | 73 | 134 | 0.0 | 0.0 | 0.00 | 0.00 | 0.00 | 70 | 1014.6 |
| 20260831002202 | 74 | 188 | 0.0 | 0.0 | 0.00 | 0.00 | 0.00 | 70 | 1013.9 |
| 20260831002158 | 73 | 154 | 0.0 | 0.0 | 0.00 | 0.00 | 0.00 | 69 | 1014.7 |
| 20260831001702 | 74 | 286 | 0.0 | 0.0 | 0.00 | 0.00 | 0.00 | 70 | 1013.8 |
| 20260831001655 | 73 | 87 | 0.0 | 0.0 | 0.00 | 0.00 | 0.00 | 67 | 1014.7 |
| 20260831001202 | 74 | 326 | 0.0 | 0.0 | 0.00 | 0.00 | 0.00 | 69 | 1013.8 |
| 20260831001154 | 73 | 173 | 0.0 | 0.0 | 0.00 | 0.00 | 0.00 | 67 | 1014.8 |
| 20260831000702 | 74 | 205 | 0.0 | 0.0 | 0.00 | 0.00 | 0.00 | 69 | 1013.7 |
| 20260831000652 | 73 | 116 | 0.0 | 0.0 | 0.00 | 0.00 | 0.00 | 67 | 1014.3 |
| 20260831000204 | 74 | 224 | 0.0 | 0.0 | 0.00 | 0.00 | 0.00 | 69 | 1013.5 |
| 20260831000151 | 73 | 97 | 0.0 | 0.0 | 0.00 | 0.00 | 0.00 | 67 | 1014.3 |
| 20260830235702 | 74 | 207 | 0.0 | 0.0 | 0.00 | 0.00 | 0.00 | 69 | 1013.4 |
| 20260830235650 | 73 | 128 | 0.0 | 0.0 | 0.00 | 0.00 | 0.00 | 67 | 1014.3 |
| 20260830235203 | 74 | 227 | 0.0 | 2.0 | 0.00 | 0.00 | 0.00 | 68 | 1013.4 |
| 20260830235145 | 74 | 131 | 0.0 | 0.0 | 0.00 | 0.00 | 0.00 | 66 | 1014.2 |
| 20260830234640 | 74 | 109 | 0.0 | 0.0 | 0.00 | 0.00 | 0.00 | 66 | 1014.0 |
| 20260830234203 | 75 | 246 | 0.0 | 0.0 | 0.00 | 0.00 | 0.00 | 68 | 1013.4 |
| 20260830234136 | 74 | 138 | 0.0 | 0.0 | 0.00 | 0.00 | 0.00 | 65 | 1014.3 |
| 20260830233702 | 75 | 221 | 0.0 | 0.0 | 0.00 | 0.00 | 0.00 | 67 | 1013.4 |
| 20260830233632 | 74 | 123 | 0.0 | 0.0 | 0.00 | 0.00 | 0.00 | 65 | 1014.0 |
| 20260830233202 | 75 | 221 | 0.0 | 0.0 | 0.00 | 0.00 | 0.00 | 67 | 1013.3 |
| 20260830233127 | 74 | 96 | 0.0 | 1.0 | 0.00 | 0.00 | 0.00 | 64 | 1014.0 |
| 20260830232702 | 75 | 265 | 0.0 | 0.0 | 0.00 | 0.00 | 0.00 | 67 | 1013.4 |
| 20260830232623 | 75 | 118 | 0.0 | 1.0 | 0.00 | 0.00 | 0.00 | 64 | 1014.1 |
| 20260830232202 | 75 | 298 | 0.0 | 0.0 | 0.00 | 0.00 | 0.00 | 67 | 1013.4 |
| 20260830232119 | 75 | 346 | 0.0 | 2.0 | 0.00 | 0.00 | 0.00 | 63 | 1014.2 |
| 20260830231702 | 75 | 297 | 0.0 | 0.0 | 0.00 | 0.00 | 0.00 | 66 | 1013.3 |
| 20260830231614 | 75 | 304 | 2.0 | 2.0 | 0.00 | 0.00 | 0.00 | 63 | 1014.2 |
| 20260830231202 | 75 | 127 | 0.0 | 0.0 | 0.00 | 0.00 | 0.00 | 66 | 1013.3 |
| 20260830231113 | 75 | 86 | 1.0 | 1.0 | 0.00 | 0.00 | 0.00 | 63 | 1014.2 |
| 20260830230703 | 75 | 260 | 0.0 | 0.0 | 0.00 | 0.00 | 0.00 | 65 | 1013.3 |
| 20260830230609 | 75 | 121 | 1.0 | 2.0 | 0.00 | 0.00 | 0.00 | 62 | 1014.2 |
| 20260830230202 | 76 | 207 | 0.0 | 0.0 | 0.00 | 0.00 | 0.00 | 65 | 1013.4 |
| 20260830230104 | 75 | 188 | 1.0 | 2.0 | 0.00 | 0.00 | 0.00 | 62 | 1014.1 |
| 20260830225703 | 76 | 249 | 0.0 | 2.0 | 0.00 | 0.00 | 0.00 | 65 | 1013.3 |
| 20260830225559 | 75 | 123 | 0.0 | 1.0 | 0.00 | 0.00 | 0.00 | 62 | 1014.2 |
| 20260830225202 | 76 | 289 | 0.0 | 1.0 | 0.00 | 0.00 | 0.00 | 64 | 1013.5 |
| 20260830225053 | 75 | 148 | 1.0 | 2.0 | 0.00 | 0.00 | 0.00 | 61 | 1014.2 |
| 20260830224702 | 76 | 193 | 0.0 | 1.0 | 0.00 | 0.00 | 0.00 | 64 | 1013.5 |
| 20260830224551 | 75 | 121 | 0.0 | 3.0 | 0.00 | 0.00 | 0.00 | 61 | 1014.3 |
| 20260830224202 | 76 | 226 | 0.0 | 1.0 | 0.00 | 0.00 | 0.00 | 64 | 1013.5 |
| 20260830224048 | 76 | 48 | 2.0 | 2.0 | 0.00 | 0.00 | 0.00 | 60 | 1014.4 |
| 20260830223545 | 76 | 106 | 0.0 | 2.0 | 0.00 | 0.00 | 0.00 | 60 | 1014.4 |
| 20260830223202 | 76 | 290 | 0.0 | 0.0 | 0.00 | 0.00 | 0.00 | 63 | 1013.6 |
| 20260830223045 | 76 | 80 | 0.0 | 2.0 | 0.00 | 0.00 | 0.00 | 59 | 1014.6 |
| 20260830222702 | 76 | 216 | 0.0 | 0.0 | 0.00 | 0.00 | 0.00 | 62 | 1013.7 |
| 20260830222539 | 76 | 143 | 1.0 | 1.0 | 0.00 | 0.00 | 0.00 | 59 | 1014.4 |
| 20260830222202 | 77 | 167 | 0.0 | 1.0 | 0.00 | 0.00 | 0.00 | 62 | 1013.7 |
| 20260830222035 | 76 | 350 | 2.0 | 2.0 | 0.00 | 0.00 | 0.00 | 58 | 1014.4 |
| 20260830221531 | 76 | 97 | 0.0 | 2.0 | 0.00 | 0.00 | 0.00 | 57 | 1014.7 |
| 20260830221027 | 76 | 99 | 1.0 | 3.0 | 0.00 | 0.00 | 0.00 | 58 | 1014.7 |
| 20260830220703 | 77 | 218 | 1.0 | 5.0 | 0.00 | 0.00 | 0.00 | 60 | 1013.7 |
| 20260830220526 | 77 | 99 | 1.0 | 2.0 | 0.00 | 0.00 | 0.00 | 57 | 1014.7 |
| 20260830220025 | 77 | 174 | 1.0 | 2.0 | 0.00 | 0.00 | 0.00 | 57 | 1014.6 |
| 20260830215703 | 78 | 210 | 1.0 | 5.0 | 0.00 | 0.00 | 0.00 | 59 | 1013.8 |
| 20260830215520 | 77 | 266 | 1.0 | 2.0 | 0.00 | 0.00 | 0.00 | 56 | 1014.5 |
| 20260830215202 | 78 | 299 | 0.0 | 5.0 | 0.00 | 0.00 | 0.00 | 58 | 1013.8 |
| 20260830215015 | 77 | 261 | 1.0 | 4.0 | 0.00 | 0.00 | 0.00 | 56 | 1014.5 |
| 20260830214703 | 78 | 229 | 0.0 | 3.0 | 0.00 | 0.00 | 0.00 | 59 | 1013.8 |